TIANWANG 1B (TW-1B)
1 40927U 15051C   20009.23679574  .00014287  00000-0  18918-3 0  9990
2 40927  97.1122  59.3356 0006803 357.5493  74.9292 15.58375504241823
TIANWANG 1A (TW-1A)
1 40928U 15051D   20009.32408771  .00002846  00000-0  69053-4 0  9995
2 40928  97.1272  40.9875 0012340  56.0924 359.5134 15.41781235240690
LAPAN A2
1 40931U 15052B   20008.73385127  .00000640  00000-0  00000+0 0  9995
2 40931   5.9917  41.4791 0013162 160.0202 200.3725 14.76621920231463
LQSAT
1 40958U 15057A   20008.88397737 +.00000013 +00000-0 +95842-5 0  9993
2 40958 097.8759 077.3017 0016990 308.5720 051.3966 14.73103215228872
CHUBUSAT 2
1 41338U 16012B   20008.82501565  .00000309  00000-0  17249-4 0  9990
2 41338  31.0034 287.4108 0013754 324.6920  35.2804 15.00228733213591
CHUBUSAT 3
1 41339U 16012C   20009.17016657  .00000295  00000-0  16129-4 0  9993
2 41339  31.0129 283.0497 0013726 335.5342  24.4657 15.00398556213641
OUFTI-1
1 41458U 16025C   20009.22350423  .00001329  00000-0  70528-4 0  9999
2 41458  98.0994 111.4990 0165466  29.6126 331.4344 15.06367611203353
E-STAR-2
1 41459U 16025D   20009.22455012  .00001396  00000-0  74452-4 0  9994
2 41459  98.0984 111.0353 0166448  31.2173 329.8853 15.05967567203322
AAUSAT 4
1 41460U 16025E   20009.26411810  .00001769  00000-0  90768-4 0  9990
2 41460  98.0969 112.8767 0156241  21.7743 339.0022 15.08071779203495
NUSAT 1
1 41557U 16033B   20009.24602502  .00001154  00000-0  45407-4 0  9992
2 41557  97.4108 100.5315 0012179 298.0234  61.9773 15.27648914201313
BEESAT 4
1 41619U 16040W   20008.60593444 +.00001227 +00000-0 +54121-4 0  9996
2 41619 097.3431 071.7838 0011981 034.0779 326.1226 15.23594842184901
PRATHAM
1 41783U 16059A   20009.16290237  .00000057  00000-0  20098-4 0  9990
2 41783  98.0414  68.9294 0034881 100.6914 259.8218 14.63030761175441
ALSAT 1N
1 41789U 16059G   20009.25000348  .00000027  00000-0  14149-4 0  9995
2 41789  98.0443  71.4650 0029669  89.2140 271.2461 14.64288378175588
NAYIF 1
1 42017U 17008BX  20008.98934040  .00001418  00000-0  57882-4 0  9995
2 42017  97.3811  78.7654 0006824 155.5532 204.6031 15.26041669161079
MAX VALIER SAT
1 42778U 17036P   20009.17147296  .00000832  00000-0  39003-4 0  9995
2 42778  97.3289  67.0536 0011279 219.8767 140.1642 15.22339975141342
